When you browse on this site, cookies collect data to enhance your experience and personalize the content and advertising you see.
Visit our Privacy Policy to learn more. By continuing to use the site, you agree to this use of cookies and data.
  • In United Kingdom
  • List of Countries
  • For 7 days
  • Water Temperature
  • Satellite Maps
  • Weather Map
  • Weather Widgets
  • user-avatar
    Login

    Hourly Weather Qizilcha

    Today, 24 January, Thursday

    Time Temperature Precipitation Wind Pressure Humidity
    00:00 +1°C° 0 mm 2 mps 703 mmHg 53%
    01:00 -1°C° 0 mm 2 mps 703 mmHg 52%
    02:00 -1°C° 0 mm 2 mps 704 mmHg 52%
    03:00 -1°C° 0 mm 2 mps 704 mmHg 52%
    04:00 -1°C° 0 mm 2 mps 704 mmHg 52%
    05:00 -1°C° 0 mm 2 mps 704 mmHg 53%
    06:00 -1°C° 0 mm 2 mps 705 mmHg 53%
    07:00 -1°C° 0 mm 2 mps 705 mmHg 53%
    08:00 +2°C° 0 mm 2 mps 705 mmHg 49%
    09:00 +3°C° 0 mm 2 mps 706 mmHg 44%
    10:00 +5°C° 0 mm 2 mps 706 mmHg 39%
    11:00 +6°C° 0 mm 2 mps 706 mmHg 38%
    12:00 +6°C° 0 mm 2 mps 706 mmHg 36%
    13:00 +7°C° 0 mm 2 mps 706 mmHg 35%
    14:00 +8°C° 0 mm 1 mps 706 mmHg 38%
    15:00 +7°C° 0 mm 1 mps 706 mmHg 40%
    16:00 +6°C° 0 mm 0 mps 706 mmHg 43%
    17:00 +6°C° 0 mm 1 mps 706 mmHg 44%
    18:00 +5°C° 0 mm 1 mps 706 mmHg 46%
    19:00 +3°C° 0 mm 2 mps 706 mmHg 47%
    20:00 +3°C° 0 mm 2 mps 706 mmHg 47%
    21:00 +3°C° 0 mm 2 mps 706 mmHg 47%
    22:00 +2°C° 0 mm 2 mps 706 mmHg 47%
    23:00 +2°C° 0 mm 2 mps 706 mmHg 48%

    Tomorrow, 25 January, Friday

    Time Temperature Precipitation Wind Pressure Humidity
    00:00 +2°C° 0 mm 2 mps 706 mmHg 48%
    01:00 +1°C° 0 mm 2 mps 706 mmHg 48%
    02:00 +1°C° 0 mm 2 mps 705 mmHg 48%
    03:00 +1°C° 0 mm 2 mps 705 mmHg 48%
    04:00 +1°C° 0 mm 2 mps 705 mmHg 48%
    05:00 +1°C° 0 mm 2 mps 705 mmHg 48%
    06:00 +1°C° 0 mm 2 mps 705 mmHg 48%
    07:00 +1°C° 0 mm 2 mps 705 mmHg 48%
    08:00 +2°C° 0 mm 3 mps 705 mmHg 42%
    09:00 +4°C° 0 mm 3 mps 705 mmHg 37%
    10:00 +5°C° 0 mm 3 mps 705 mmHg 31%
    11:00 +6°C° 0 mm 4 mps 704 mmHg 29%
    12:00 +7°C° 0 mm 4 mps 704 mmHg 26%
    13:00 +8°C° 0 mm 4 mps 703 mmHg 24%
    14:00 +7°C° 0 mm 4 mps 703 mmHg 26%
    15:00 +6°C° 0 mm 4 mps 703 mmHg 29%
    16:00 +6°C° 0 mm 4 mps 703 mmHg 31%
    17:00 +5°C° 0 mm 4 mps 703 mmHg 34%
    18:00 +4°C° 0 mm 4 mps 703 mmHg 37%
    19:00 +1°C° 0 mm 4 mps 703 mmHg 40%
    20:00 +1°C° 0 mm 4 mps 703 mmHg 39%
    21:00 +2°C° 0 mm 3 mps 702 mmHg 38%
    22:00 +1°C° 0 mm 3 mps 702 mmHg 37%
    23:00 +1°C° 0 mm 3 mps 702 mmHg 35%

    Day after tomorrow, 26 January, Saturday

    Time Temperature Precipitation Wind Pressure Humidity
    00:00 +1°C° 0 mm 3 mps 702 mmHg 34%
    01:00 +1°C° 0 mm 3 mps 702 mmHg 32%
    02:00 +1°C° 0 mm 3 mps 701 mmHg 31%
    03:00 +2°C° 0 mm 2 mps 701 mmHg 30%
    04:00 +1°C° 0 mm 2 mps 701 mmHg 29%
    05:00 +1°C° 0 mm 2 mps 701 mmHg 29%
    06:00 +1°C° 0 mm 2 mps 701 mmHg 28%
    07:00 +1°C° 0 mm 2 mps 701 mmHg 28%
    08:00 +3°C° 0 mm 2 mps 702 mmHg 25%
    09:00 +7°C° 0 mm 1 mps 702 mmHg 22%
    10:00 +9°C° 0 mm 1 mps 702 mmHg 19%
    11:00 +10°C° 0 mm 1 mps 702 mmHg 18%
    12:00 +11°C° 0 mm 1 mps 702 mmHg 17%
    13:00 +10°C° 0 mm 2 mps 702 mmHg 15%
    14:00 +10°C° 0 mm 2 mps 701 mmHg 18%
    15:00 +9°C° 0 mm 2 mps 701 mmHg 21%
    16:00 +9°C° 0 mm 2 mps 701 mmHg 24%
    17:00 +8°C° 0 mm 2 mps 701 mmHg 24%
    18:00 +7°C° 0 mm 2 mps 701 mmHg 25%
    19:00 +6°C° 0 mm 2 mps 702 mmHg 25%
    20:00 +6°C° 0 mm 2 mps 702 mmHg 25%
    21:00 +5°C° 0 mm 3 mps 702 mmHg 25%
    22:00 +4°C° 0 mm 3 mps 702 mmHg 25%
    23:00 +4°C° 0 mm 3 mps 702 mmHg 26%

    27 January, Sunday

    Time Temperature Precipitation Wind Pressure Humidity
    00:00 +4°C° 0 mm 3 mps 702 mmHg 27%
    01:00 +4°C° 0 mm 3 mps 702 mmHg 28%
    02:00 +4°C° 0 mm 3 mps 702 mmHg 29%
    03:00 +3°C° 0 mm 3 mps 702 mmHg 30%
    04:00 +3°C° 0 mm 3 mps 702 mmHg 31%
    05:00 +4°C° 0 mm 3 mps 702 mmHg 32%
    06:00 +4°C° 0 mm 3 mps 702 mmHg 32%
    07:00 +4°C° 0 mm 3 mps 703 mmHg 33%
    08:00 +5°C° 0 mm 3 mps 703 mmHg 32%
    09:00 +8°C° 0 mm 3 mps 703 mmHg 30%
    10:00 +8°C° 0 mm 4 mps 703 mmHg 28%
    11:00 +10°C° 0 mm 4 mps 703 mmHg 28%
    12:00 +11°C° 0 mm 3 mps 703 mmHg 27%
    13:00 +12°C° 0 mm 3 mps 702 mmHg 27%
    14:00 +11°C° 0 mm 3 mps 702 mmHg 30%
    15:00 +12°C° 0 mm 2 mps 702 mmHg 34%
    16:00 +11°C° 0 mm 1 mps 701 mmHg 37%
    17:00 +9°C° 0 mm 2 mps 701 mmHg 38%
    18:00 +9°C° 0 mm 3 mps 701 mmHg 40%
    19:00 +8°C° 0 mm 3 mps 702 mmHg 42%
    20:00 +8°C° 0 mm 3 mps 701 mmHg 42%
    21:00 +7°C° 0 mm 3 mps 701 mmHg 42%
    22:00 +6°C° 0 mm 4 mps 701 mmHg 43%
    23:00 +6°C° 0 mm 4 mps 701 mmHg 42%

    28 January, Monday

    Time Temperature Precipitation Wind Pressure Humidity
    00:00 +6°C° 0 mm 4 mps 701 mmHg 40%
    01:00 +6°C° 0 mm 4 mps 701 mmHg 39%
    02:00 +6°C° 0 mm 4 mps 700 mmHg 39%
    03:00 +5°C° 0 mm 4 mps 700 mmHg 38%
    04:00 +5°C° 0 mm 4 mps 700 mmHg 37%
    05:00 +5°C° 0 mm 4 mps 700 mmHg 38%
    06:00 +5°C° 0 mm 4 mps 700 mmHg 38%
    07:00 +5°C° 0 mm 4 mps 700 mmHg 38%
    08:00 +7°C° 0 mm 5 mps 700 mmHg 34%
    09:00 +9°C° 0 mm 6 mps 700 mmHg 29%
    10:00 +11°C° 0 mm 6 mps 700 mmHg 25%
    11:00 +12°C° 0 mm 7 mps 700 mmHg 24%
    12:00 +14°C° 0 mm 7 mps 700 mmHg 23%
    13:00 +15°C° 0 mm 8 mps 699 mmHg 22%
    14:00 +14°C° 0 mm 6 mps 699 mmHg 24%
    15:00 +14°C° 0 mm 5 mps 699 mmHg 25%
    16:00 +13°C° 0 mm 4 mps 698 mmHg 27%
    17:00 +12°C° 0 mm 4 mps 698 mmHg 29%
    18:00 +11°C° 0 mm 4 mps 698 mmHg 30%
    19:00 +10°C° 0 mm 4 mps 698 mmHg 32%
    20:00 +10°C° 0 mm 4 mps 698 mmHg 32%
    21:00 +10°C° 0 mm 4 mps 697 mmHg 32%
    22:00 +8°C° 0 mm 4 mps 697 mmHg 32%
    23:00 +8°C° 0 mm 4 mps 697 mmHg 32%

    29 January, Tuesday

    Time Temperature Precipitation Wind Pressure Humidity
    00:00 +8°C° 0 mm 4 mps 697 mmHg 31%
    01:00 +8°C° 0 mm 4 mps 696 mmHg 31%
    02:00 +10°C° 0 mm 4 mps 696 mmHg 31%
    03:00 +10°C° 0 mm 4 mps 695 mmHg 31%
    04:00 +10°C° 0 mm 4 mps 695 mmHg 32%
    05:00 +10°C° 0 mm 4 mps 695 mmHg 33%
    06:00 +10°C° 0 mm 4 mps 695 mmHg 34%
    07:00 +10°C° 0 mm 4 mps 695 mmHg 35%
    08:00 +11°C° 0 mm 4 mps 695 mmHg 35%
    09:00 +13°C° 0 mm 5 mps 695 mmHg 34%
    10:00 +14°C° 0 mm 6 mps 695 mmHg 34%
    11:00 +15°C° 0 mm 6 mps 695 mmHg 34%
    12:00 +16°C° 0 mm 7 mps 694 mmHg 35%
    13:00 +17°C° 0 mm 7 mps 694 mmHg 35%
    14:00 +16°C° 0 mm 6 mps 693 mmHg 38%
    15:00 +15°C° 0 mm 5 mps 693 mmHg 40%
    16:00 +15°C° 0 mm 4 mps 692 mmHg 43%
    17:00 +14°C° 0.1 mm 4 mps 692 mmHg 46%
    18:00 +13°C° 0.1 mm 4 mps 692 mmHg 50%
    19:00 +13°C° 0.1 mm 4 mps 692 mmHg 53%
    20:00 +12°C° 0 mm 4 mps 692 mmHg 55%
    21:00 +12°C° 0 mm 4 mps 692 mmHg 57%
    22:00 +11°C° 0 mm 4 mps 692 mmHg 60%
    23:00 +11°C° 0 mm 4 mps 691 mmHg 60%
    Show more